Simultaneous Nadir Overpasses (SNOs) Predictions

Prediction of SNOs between NOAA-20 and METOP-C Satellite Orbit:

Table of predicted SNOs for the next 14.0 days since TLE Epoch: 10/1/2022
Index Date (NOAA-20) Time (NOAA-20) Lat,Lon (NOAA-20) SZA (NOAA-20 ) Date (METOP-C) Time (METOP-C) Lat,Lon (METOP-C) SZA (METOP-C ) Distance(km) Time Diff (sec)
1 10/05/2022 19:52:46 73.38,-127.72 78.36 10/05/2022 19:53:54 73.35,-125.48 78.27 71.24 68
2 10/05/2022 20:43:29 -73.33, 39.70 101.68 10/05/2022 20:44:38 -73.27, 41.65 101.80 62.74 69
3 10/05/2022 21:34:10 73.08,-152.44 78.07 10/05/2022 21:35:22 73.03,-151.54 77.98 29.74 72
4 10/05/2022 22:24:53 -73.03, 14.97 101.97 10/05/2022 22:26:05 -72.99, 15.71 102.04 24.43 72
5 10/05/2022 23:15:35 72.83,-177.29 77.83 10/05/2022 23:16:47 72.85,-177.25 77.84 2.33 72
6 10/06/2022 00:06:19 -72.84, -9.98 102.15 10/06/2022 00:07:30 -72.82, -10.00 102.18 2.28 71
7 10/06/2022 00:57:05 72.83, 157.33 77.86 10/06/2022 00:58:09 72.82, 157.35 77.84 1.48 64
8 10/06/2022 01:47:49 -72.84, -35.37 102.12 10/06/2022 01:48:51 -72.84, -35.28 102.13 2.70 62
9 10/06/2022 02:38:34 72.79, 132.05 77.84 10/06/2022 02:39:31 72.80, 131.96 77.85 3.15 57
10 10/06/2022 03:29:18 -72.80, -60.64 102.14 10/06/2022 03:30:13 -72.82, -60.68 102.13 2.63 55
11 10/06/2022 04:20:04 72.79, 106.67 77.87 10/06/2022 04:20:52 72.82, 106.67 77.90 3.33 48
12 10/06/2022 05:10:47 -72.80, -86.03 102.11 10/06/2022 05:11:34 -72.79, -86.07 102.12 1.55 47
13 10/06/2022 06:01:33 72.80, 81.28 77.91 10/06/2022 06:02:13 72.80, 81.28 77.90 0.06 40
14 10/06/2022 06:52:17 -72.80,-111.41 102.08 10/06/2022 06:52:55 -72.82,-111.35 102.07 2.41 38
15 10/06/2022 07:43:03 72.80, 55.90 77.94 10/06/2022 07:43:35 72.77, 55.89 77.90 3.39 32
16 10/06/2022 08:33:47 -72.81,-136.80 102.05 10/06/2022 08:34:17 -72.79,-136.75 102.07 2.48 30
17 10/06/2022 09:24:33 72.81, 30.52 77.97 10/06/2022 09:24:56 72.80, 30.60 77.95 3.07 23
18 10/06/2022 10:15:16 -72.76,-162.07 102.07 10/06/2022 10:15:39 -72.77,-162.14 102.07 2.10 23
19 10/06/2022 11:06:02 72.76, 5.24 77.95 10/06/2022 11:06:18 72.77, 5.21 77.96 1.49 16
20 10/06/2022 11:56:46 -72.77, 172.54 102.04 10/06/2022 11:57:00 -72.79, 172.58 102.02 3.04 14
21 10/06/2022 12:47:32 72.77, -20.15 77.98 10/06/2022 12:47:40 72.75, -20.18 77.96 2.43 8
22 10/06/2022 13:38:16 -72.77, 147.16 102.01 10/06/2022 13:38:22 -72.77, 147.18 102.01 1.03 6
23 10/06/2022 14:29:02 72.77, -45.53 78.01 10/06/2022 14:29:01 72.77, -45.47 78.01 2.08 1
24 10/06/2022 15:19:45 -72.73, 121.88 102.03 10/06/2022 15:19:44 -72.74, 121.79 102.01 3.35 1
25 10/06/2022 16:10:31 72.72, -70.81 77.99 10/06/2022 16:10:23 72.75, -70.86 78.01 2.95 8
26 10/06/2022 17:01:15 -72.73, 96.49 102.00 10/06/2022 17:01:06 -72.72, 96.40 102.01 3.39 9
27 10/06/2022 17:52:01 72.73, -96.20 78.02 10/06/2022 17:51:45 72.72, -96.25 78.02 2.14 16
28 10/06/2022 18:42:45 -72.74, 71.11 101.96 10/06/2022 18:42:27 -72.74, 71.11 101.96 0.86 18
29 10/06/2022 19:33:31 72.73,-121.58 78.05 10/06/2022 19:33:06 72.75,-121.54 78.07 1.88 25
30 10/06/2022 20:24:15 -72.74, 45.73 101.93 10/06/2022 20:23:49 -72.72, 45.72 101.95 2.46 26
31 10/06/2022 21:15:01 72.74,-146.96 78.08 10/06/2022 21:14:28 72.72,-146.93 78.07 2.23 33
32 10/06/2022 22:05:45 -72.74, 20.34 101.90 10/06/2022 22:05:10 -72.74, 20.44 101.90 3.10 35
33 10/06/2022 22:56:30 72.69,-172.24 78.06 10/06/2022 22:55:50 72.70,-172.33 78.07 2.73 40
34 10/06/2022 23:47:14 -72.70, -4.94 101.92 10/06/2022 23:46:32 -72.72, -4.96 101.90 2.26 42
35 10/07/2022 00:38:00 72.70, 162.37 78.10 10/07/2022 00:37:11 72.72, 162.39 78.12 2.64 49
36 10/07/2022 01:28:44 -72.70, -30.32 101.89 10/07/2022 01:27:54 -72.69, -30.35 101.90 1.40 50
37 10/07/2022 02:19:30 72.70, 136.99 78.13 10/07/2022 02:18:33 72.70, 137.00 78.13 0.81 57
38 10/07/2022 03:10:14 -72.71, -55.71 101.86 10/07/2022 03:09:15 -72.72, -55.63 101.84 2.65 59
39 10/07/2022 04:01:00 72.71, 111.60 78.16 10/07/2022 03:59:54 72.72, 111.71 78.18 3.75 66
40 10/07/2022 04:51:44 -72.71, -81.09 101.83 10/07/2022 04:50:37 -72.69, -81.03 101.84 3.00 67
41 10/07/2022 05:42:30 72.71, 86.22 78.19 10/07/2022 05:41:16 72.70, 86.32 78.18 3.67 74
42 10/07/2022 06:33:13 -72.67,-106.37 101.85 10/07/2022 06:31:59 -72.67,-106.42 101.84 1.57 74
43 10/07/2022 07:23:55 72.46, 61.35 77.95 10/07/2022 07:22:42 72.47, 60.51 77.99 28.17 73
44 10/07/2022 08:14:38 -72.42,-131.24 102.08 10/07/2022 08:13:26 -72.39,-132.32 102.07 36.32 72
45 10/07/2022 09:05:18 72.11, 36.67 77.61 10/07/2022 09:04:10 72.13, 34.52 77.70 73.40 68
46 10/07/2022 09:56:02 -72.12,-156.03 102.37 10/07/2022 09:54:53 -72.11,-158.20 102.31 74.26 69



Historial Predications of SNOs between NOAA-20 and METOP-C
